Regional Weather Roundup
Issued by NWS

Home | Current Version | Previous Version | Graphics & Text | Print | Product List | Glossary On
Versions: 1 2 3 4 5 6 7 8 9 10 11 12 13 14 15 16 17 18 19 20 21 22 23 24 25 26 27 28 29 30 31 32 33 34 35 36 37 38 39 40 41 42 43 44 45 46 47 48 49 50
000
ASUS43 KDTX 291110
RWRMI
MICHIGAN HOURLY REGIONAL WEATHER ROUNDUP
NATIONAL WEATHER SERVICE DETROIT/PONTIAC MI
700 AM EDT WED JUL 29 2015

NOTE: "FAIR" INDICATES FEW OR NO CLOUDS BELOW 12,000 FEET WITH NO
SIGNIFICANT WEATHER AND/OR OBSTRUCTION TO VISIBILITY.

MIZ047>049-052>055-059>063-066>070-074>076-081>083-291200-
SOUTHEAST LOWER MICHIGAN

CITY           SKY/WX    TMP DP  RH WIND       PRES   REMARKS
ADRIAN         PTCLDY    65  63  93 CALM      29.97S
ALMA           PTCLDY    67  64  89 CALM      29.94S
ANN ARBOR      PTCLDY    65  64  97 CALM      29.97R
BAD AXE        PTCLDY    62  60  93 CALM      29.96S
DETROIT CITY   MOCLDY    72  65  78 CALM      29.97R
DETROIT        CLOUDY    72  68  87 CALM      29.97R
FLINT          MOCLDY    68  63  84 CALM      29.96R
GROSSE ILE     PTCLDY    72  68  88 CALM      29.95R
HILLSDALE      PTCLDY    69  67  90 S3        29.98S
HOWELL         CLOUDY    68  66  93 CALM      29.97S

CITY           SKY/WX    TMP DP  RH WIND       PRES   REMARKS
JACKSON        PTCLDY    70  63  78 SE3       29.96S
LAMBERTVILLE   CLEAR     68  65  91 CALM      29.96S FOG
LANSING        PTCLDY    72  62  71 S6        29.95F
LAPEER         NOT AVBL
MASON          PTCLDY    67  62  82 S3        29.96S
MONROE         PTCLDY    65  65  97 CALM      29.95R FOG
MT. CLEMENS    CLOUDY    68  66  94 W1        29.95R
PONTIAC        CLOUDY    68  65  90 CALM      29.97R
PORT HOPE        N/A     72  61  68 SW5       29.93S
PORT HURON     PTCLDY    61  61 100 CALM      29.97S FOG
TRI CITIES     PTCLDY    70  63  78 S5        29.95S
YPSILANTI      PTCLDY    68  63  84 CALM      29.97R
$$
MIZ043>046-050>051-056>058-064>065-071>073-077>080-291200-
SOUTHWEST LOWER MICHIGAN

CITY           SKY/WX    TMP DP  RH WIND       PRES   REMARKS
BATTLE CREEK   MOCLDY    72  63  73 S6        29.96S
BENTON HARBOR  CLOUDY    76  71  85 S5        29.93R
BIG RAPIDS     PTCLDY    68  64  87 CALM      29.92S
COLDWATER      MOCLDY    70  63  79 CALM      29.96S
HOLLAND        MOCLDY    73  67  81 CALM      29.93S
GRAND RAPIDS   CLOUDY    73  65  75 S7        29.93S
KALAMAZOO      CLOUDY    73  65  75 S5        29.96R
MARSHALL       PTCLDY    71  64  76 CALM      29.96R
MUSKEGON       MOCLDY    76  67  73 S8        29.92S
$$
MIZ016>042-291200-
NORTHERN LOWER MICHIGAN

CITY           SKY/WX    TMP DP  RH WIND       PRES   REMARKS
ALPENA         MOCLDY    65  61  87 CALM      29.92S
BEAVER ISLAND  MOCLDY    74  64  72 S9        29.84S
BELLAIRE       MOCLDY    76  63  63 S6        29.87F
CADILLAC       MOCLDY    72  65  78 S7        29.93S
CHARLEVOIX     PTCLDY    74  63  69 S6        29.89S
FRANKFORT      PTSUNNY   75  69  82 S8        29.86F
GAYLORD        MOCLDY    73  63  70 S10       29.92F
GRAYLING       MOCLDY    72  62  71 S3        29.94R
HARBOR SPRINGS MOCLDY    75  63  66 S5        29.86S
HOUGHTON LAKE  MOCLDY    73  63  70 S9        29.94F
MANISTEE       CLOUDY    70  63  78 CALM      29.88F
OSCODA         PTCLDY    67  67  99 SW5       29.93S FOG
PELLSTON       PTCLDY    71  63  75 S3        29.86F
TRAVERSE CITY  MOCLDY    74  63  68 VRB3      29.86S
$$
MIZ007>008-015-291200-
EASTERN UPPER MICHIGAN

CITY           SKY/WX    TMP DP  RH WIND       PRES   REMARKS
KINROSS        CLEAR     72  64  78 SE7       29.85F
MACKINAC ISLAN PTCLDY    73  64  73 SE9       29.85F
$$
MIZ004>006-011>014-085-291200-
CENTRAL UPPER MICHIGAN

CITY           SKY/WX    TMP DP  RH WIND       PRES   REMARKS
MANISTIQUE     MOCLDY    70  66  88 SW7       29.81S
ESCANABA       CLOUDY    73  70  88 SW7       29.80S
MENOMINEE      CLOUDY    73  66  78 W7        29.84R
SAWYER-GWINN   CLOUDY    68  64  88 S9        29.80R
$$
MIZ001>003-009>011-084-291200-
WESTERN UPPER MICHIGAN

CITY           SKY/WX    TMP DP  RH WIND       PRES   REMARKS
IRON MOUNTAIN  MOCLDY    72  59  63 W7        29.83R
HOUGHTON       PTCLDY    70  52  52 W15G22    29.74S
COPPER HARBOR    N/A     74  54  49 NW9G17    29.70F
IRONWOOD       CLEAR     66  50  55 SW13G21   29.76F
$$

ABBREVIATIONS USED IN REMARKS
   TC - TEMPERATURE IN CELSIUS
  WCI - WIND CHILL INDEX
   HX - HEAT INDEX
  VSB - VISIBILITY




USA.gov is the U.S. government's official web portal to all federal, state and local government web resources and services.